TimeAKST,TemperatureF,Dew PointF,Humidity,Sea Level PressureIn,VisibilityMPH,Wind Direction,Wind SpeedMPH,Gust SpeedMPH,PrecipitationIn,Events,Conditions,WindDirDegrees,DateUTC
12:56 AM,34.0,32.0,92,29.98,10.0,Calm,Calm,-,0.00,,Partly Cloudy,0,2013-12-16 09:56:00
1:56 AM,32.9,32.0,96,30.01,10.0,Calm,Calm,-,N/A,,Mostly Cloudy,0,2013-12-16 10:56:00
2:49 AM,33.8,32.0,93,30.01,10.0,Calm,Calm,-,0.00,,Overcast,0,2013-12-16 11:49:00
2:56 AM,33.8,32.0,93,30.02,10.0,Calm,Calm,-,N/A,,Overcast,0,2013-12-16 11:56:00
3:40 AM,33.8,33.8,100,30.02,7.0,Calm,Calm,-,0.00,Snow,Light Snow,0,2013-12-16 12:40:00
3:56 AM,32.9,32.9,100,30.03,4.0,Calm,Calm,-,0.00,Snow,Light Snow,0,2013-12-16 12:56:00
4:29 AM,33.8,32.0,93,30.02,10.0,Calm,Calm,-,0.00,,Mostly Cloudy,0,2013-12-16 13:29:00
4:56 AM,32.9,31.1,93,30.03,10.0,Calm,Calm,-,0.00,,Mostly Cloudy,0,2013-12-16 13:56:00
5:56 AM,32.0,32.0,100,30.03,10.0,Calm,Calm,-,N/A,,Mostly Cloudy,0,2013-12-16 14:56:00
6:18 AM,33.8,32.0,93,30.03,10.0,Calm,Calm,-,N/A,,Mostly Cloudy,0,2013-12-16 15:18:00
6:56 AM,32.0,32.0,100,30.05,10.0,Calm,Calm,-,0.00,,Overcast,0,2013-12-16 15:56:00
7:40 AM,32.0,32.0,100,30.03,10.0,Calm,Calm,-,0.00,,Mostly Cloudy,0,2013-12-16 16:40:00
7:56 AM,32.0,32.0,100,30.04,10.0,Calm,Calm,-,0.00,,Mostly Cloudy,0,2013-12-16 16:56:00
8:56 AM,33.8,32.0,93,30.02,10.0,Calm,Calm,-,N/A,,Overcast,0,2013-12-16 17:56:00
9:56 AM,32.9,32.0,96,30.03,10.0,Calm,Calm,-,N/A,,Mostly Cloudy,0,2013-12-16 18:56:00
10:56 AM,34.0,32.0,92,30.01,10.0,Calm,Calm,-,0.00,,Mostly Cloudy,0,2013-12-16 19:56:00
11:56 AM,35.6,33.8,93,29.97,10.0,ENE,4.6,-,N/A,,Mostly Cloudy,70,2013-12-16 20:56:00
12:56 PM,34.9,34.0,97,29.94,10.0,ENE,4.6,-,0.00,,Mostly Cloudy,60,2013-12-16 21:56:00
1:56 PM,34.9,32.9,92,29.90,10.0,ENE,4.6,-,0.00,Snow,Light Snow,60,2013-12-16 22:56:00
2:56 PM,35.6,33.8,93,29.83,10.0,ENE,6.9,-,N/A,,Overcast,70,2013-12-16 23:56:00
3:34 PM,35.6,33.8,93,29.81,6.0,ENE,6.9,-,0.00,Snow,Light Snow,60,2013-12-17 00:34:00
3:44 PM,35.6,33.8,93,29.80,3.0,Variable,3.5,-,0.00,Snow,Light Snow,0,2013-12-17 00:44:00
3:56 PM,34.9,34.0,97,29.80,2.5,ENE,4.6,-,0.00,Snow,Light Snow,60,2013-12-17 00:56:00
4:20 PM,35.6,33.8,93,29.76,3.0,NE,8.1,-,0.00,Snow,Light Snow,50,2013-12-17 01:20:00
4:56 PM,34.0,32.9,96,29.74,2.5,NE,6.9,-,0.00,Snow,Light Snow,40,2013-12-17 01:56:00
5:09 PM,35.6,33.8,93,29.72,3.0,NE,8.1,-,0.00,Snow,Light Snow,50,2013-12-17 02:09:00
5:33 PM,33.8,33.8,100,29.69,7.0,NE,9.2,-,0.00,Snow,Light Snow,50,2013-12-17 02:33:00
5:56 PM,35.6,33.8,93,29.67,6.0,NE,8.1,-,N/A,Snow,Light Snow,50,2013-12-17 02:56:00
6:18 PM,35.6,33.8,93,29.66,5.0,NE,8.1,-,0.00,Snow,Light Snow,50,2013-12-17 03:18:00
6:56 PM,34.9,34.0,97,29.64,3.0,NE,6.9,-,0.00,Snow,Light Snow,40,2013-12-17 03:56:00
7:08 PM,35.6,33.8,93,29.62,3.0,North,5.8,-,0.00,Snow,Light Snow,10,2013-12-17 04:08:00
7:35 PM,35.6,33.8,93,29.60,5.0,Variable,5.8,-,0.00,Snow,Light Snow,0,2013-12-17 04:35:00
7:56 PM,34.9,34.0,97,29.60,4.0,Calm,Calm,-,0.01,Snow,Light Snow,0,2013-12-17 04:56:00
8:56 PM,35.6,33.8,93,29.56,10.0,Calm,Calm,-,N/A,Snow,Light Snow,0,2013-12-17 05:56:00
9:32 PM,33.8,33.8,100,29.55,7.0,Calm,Calm,-,0.00,Snow,Light Snow,0,2013-12-17 06:32:00
9:40 PM,33.8,33.8,100,29.55,7.0,Calm,Calm,-,0.00,Snow,Light Snow,0,2013-12-17 06:40:00
9:43 PM,33.8,33.8,100,29.55,7.0,Calm,Calm,-,0.00,Snow,Light Snow,0,2013-12-17 06:43:00
9:56 PM,34.0,34.0,100,29.56,6.0,Calm,Calm,-,0.00,Snow,Light Snow,0,2013-12-17 06:56:00
10:17 PM,33.8,33.8,100,29.55,4.0,Calm,Calm,-,0.00,Snow,Light Snow,0,2013-12-17 07:17:00
10:24 PM,33.8,33.8,100,29.55,6.0,Calm,Calm,-,0.00,Snow,Light Snow,0,2013-12-17 07:24:00
10:56 PM,34.9,32.0,89,29.58,10.0,North,8.1,-,0.00,Snow,Light Snow,360,2013-12-17 07:56:00
11:36 PM,35.6,33.8,93,29.57,10.0,Calm,Calm,-,0.00,,Mostly Cloudy,0,2013-12-17 08:36:00
11:43 PM,35.6,33.8,93,29.57,10.0,Calm,Calm,-,0.00,,Scattered Clouds,0,2013-12-17 08:43:00
11:56 PM,35.6,32.0,87,29.57,10.0,Variable,5.8,-,N/A,,Mostly Cloudy,0,2013-12-17 08:56:00